Overview Statistics Trail Chart Weather Telemetry Raw packets
 

This is the latest recevied weather packets stored in our database for station/object KC7WRB. If no packets are shown the sender has not sent any weather packets the latest 10 day(s).

<< 6 7 8 9 10 11 12 >>
Time Temp. Humidity Pressure Rain* Wind** Luminosity Snow
1788553028 25° C 22% 1012.3 hPa 0 mm - 824 W/m² -
1788552728 25° C 22% 1012 hPa 0 mm - 826 W/m² -
1788552423 26.11° C 22% 1012 hPa 0 mm - 825 W/m² -
1788552118 25.56° C 22% 1012.4 hPa 0 mm - 825 W/m² -
1788551816 25° C 23% 1012.3 hPa 0 mm - 826 W/m² -
1788551516 25.56° C 22% 1012.3 hPa 0 mm - 825 W/m² -
1788551210 25.56° C 22% 1012.4 hPa 0 mm - 826 W/m² -
1788550910 25.56° C 23% 1012.5 hPa 0 mm - 826 W/m² -
1788550605 25° C 23% 1012.5 hPa 0 mm - 827 W/m² -
1788550301 25° C 23% 1012.5 hPa 0 mm - 827 W/m² -
1788550001 25° C 23% 1012.5 hPa 0 mm - 826 W/m² -
1788549697 25° C 23% 1012.6 hPa 0 mm - 824 W/m² -
1788549394 25.56° C 23% 1012.9 hPa 0 mm - 822 W/m² -
1788549090 25° C 23% 1013 hPa 0 mm - 822 W/m² -
1788548785 23.89° C 24% 1012.9 hPa 0 mm - 819 W/m² -
1788548481 25° C 23% 1012.9 hPa 0 mm - 816 W/m² -
1788548178 24.44° C 23% 1012.9 hPa 0 mm - 812 W/m² -
1788547872 24.44° C 24% 1013 hPa 0 mm - 807 W/m² -
1788547571 23.89° C 25% 1013 hPa 0 mm - 803 W/m² -
1788547267 24.44° C 24% 1013.2 hPa 0 mm - 797 W/m² -
1788546962 24.44° C 24% 1013.1 hPa 0 mm - 793 W/m² -
1788546657 23.33° C 25% 1013.1 hPa 0 mm - 787 W/m² -
1788546353 23.33° C 26% 1013.1 hPa 0 mm - 779 W/m² -
1788546052 23.89° C 26% 1013.1 hPa 0 mm - 773 W/m² -
1788545749 24.44° C 26% 1013.3 hPa 0 mm - 766 W/m² -

* Rain latest hour (hover to see other rain measurements)
** Current wind speed in m/s (hover to see current wind gust speed)